Location: Aulus
(42.7909°N, 1.3399°E)
Time: 22:45:54
(UTC+00:00)

SPOT 3 Rocket - Pass Details

Date: 19 May 2025
Orbit: 775 x 790 km, 98.5° (Epoch: 12 June)

Event Time Altitude Azimuth Distance (km) Brightness Sun altitude
Exits shadow 21:43:34 34° 191° (S) 1,271 4.2 -20.7°
Maximum altitude 21:45:44 62° 259° (WSW) 876 3.8 -20.9°
Drops below altitude 10° 21:50:50 10° 340° (NNW) 2,333 7.1 -21.4°
Sets 21:53:11 0° 344° (NNW) 3,264 8.1 -21.6°
